{"data":{"norad_id":47283,"epoch":"2026-09-19T14:34:10.222464Z","epoch_age_seconds":91544,"freshness":"FRESH","line1":"1 47283U 20100AB  26262.60706276 -.00000402  00000+0 -11537-2 0  9995","line2":"2 47283  87.8983 331.9211 0001994 101.3916 258.7437 13.12442408276957","mean_motion":13.12442408,"eccentricity":0.0001994,"inclination_deg":87.8983,"raan_deg":331.9211,"arg_perigee_deg":101.3916,"mean_anomaly_deg":258.7437,"bstar":-0.0011537,"rev_number":27695,"period_min":109.7191001466,"perigee_km":1212.2117566108,"apogee_km":1215.2393914054,"semimajor_km":7591.8625740081,"source":"CELESTRAK","updated_at":"2026-09-20T09:00:44.581109Z"}}